Location: ??????
(55.2235°N, 37.9198°E)
Time: 05:01:24
(UTC+00:00)

Daily predictions for brighter satellites

Satellite Brightness Start Highest point End
(mag) Time Altitude Azimuth Time Altitude Azimuth Time Altitude Azimuth
Cosmos 2369 Rocket 4.2 00:17:55 24° NE 00:17:55 24° NE 00:21:51 10° E
ADEOS Rocket 4.1 00:15:35 10° NNE 00:21:57 48° E 00:21:57 48° E
ADEOS II 4.4 00:17:47 10° NNE 00:19:01 17° NNE 00:19:01 17° NNE
Cosmos 2360 Rocket 4.1 00:29:09 23° NNE 00:29:09 23° NNE 00:31:14 10° NNE
Cosmos 2322 Rocket 4.1 00:34:12 24° NNE 00:34:12 24° NNE 00:36:24 10° NNE
Cosmos 2333 Rocket 4.1 00:35:28 24° NNE 00:35:28 24° NNE 00:37:47 10° NNE
SJ 16-02 4.3 00:38:25 11° E 00:38:25 11° E 00:38:40 10° ESE
USA 234 3.9 00:30:33 10° ESE 00:35:07 49° ESE 00:35:07 49° ESE
CZ-2D R/B 4.4 00:35:38 10° NNE 00:36:47 17° NNE 00:36:47 17° NNE
ACS3 Solar Sail 2.7 00:35:38 10° NNE 00:39:55 43° NE 00:39:55 43° NE
SL-16 R/B 4.1 00:44:51 22° NNE 00:44:51 22° NNE 00:47:03 10° NNE
COSMOS 2455 4.1 00:46:06 34° NNE 00:46:06 34° NNE 00:49:34 10° NE
Resurs 1-4 Rocket 4.3 00:48:00 10° NNE 00:49:16 18° N 00:49:16 18° N
Cosmos 1725 Rocket 4.5 00:52:26 10° N 00:58:42 58° ENE 01:04:55 10° SSE
Cosmos 2219 Rocket 3.5 01:03:00 33° NNE 01:03:00 33° NNE 01:06:10 10° NNE
NOSS 3-1 (C) 4.0 01:03:05 47° ENE 01:03:05 47° ENE 01:07:34 10° NE
Cosmos 1727 Rocket 4.4 01:07:36 57° NNE 01:07:36 57° NNE 01:12:34 10° NNE
Lacrosse 4 Rocket 4.0 01:11:04 15° NE 01:11:04 15° NE 01:12:30 10° ENE
NOSS 3-2 (C) 4.3 01:11:41 42° N 01:12:10 43° N 01:19:19 10° ENE
Lacrosse 5 rocket 4.2 01:16:10 12° E 01:16:10 12° E 01:16:28 10° E
H-2A R/B 3.7 01:14:39 10° NNE 01:16:39 25° NNE 01:16:39 25° NNE
Cosmos 1802 Rocket 4.2 01:13:42 10° N 01:21:19 61° SSE 01:26:23 10° SSE
NOSS 0 Rocket 4.2 01:20:16 59° SE 01:20:50 61° ESE 01:26:55 10° NE
Cosmos 1000 Rocket 4.4 01:28:40 85° S 01:28:52 89° E 01:35:15 10° NNE
NOSS 3-2 (A) 4.3 01:31:49 43° NNW 01:33:42 54° NNE 01:41:34 10° E
COSMOS 2428 2.8 01:39:07 68° N 01:39:07 68° N 01:44:12 10° NNE
Cosmos 1980 Rocket 4.2 01:38:37 16° N 01:38:58 17° N 01:42:31 10° NNE
Meteor 2-5 Rocket 3.9 01:37:02 41° S 01:39:08 72° E 01:44:54 10° NNE
Cosmos 2322 3.9 01:40:27 59° N 01:40:27 59° N 01:45:17 10° NNE
USA 267 4.3 01:34:32 10° ENE 01:40:36 39° SE 01:44:05 23° S
CZ-2C R/B 2.8 01:36:05 10° NNE 01:41:08 65° ESE 01:42:20 49° SSE
Cosmos 1980 4.0 01:40:45 51° S 01:41:59 64° ESE 01:47:37 10° NE
Cosmos 2123 Rocket 3.9 01:39:50 32° S 01:42:54 81° E 01:49:07 10° NNE
Cosmos 2016 Rocket 3.9 01:37:29 10° NNW 01:43:54 83° W 01:50:15 10° S
NOSS 3-1 (A) 3.1 01:50:03 63° S 01:50:39 69° SE 01:56:42 10° NE
Cosmos 1939 Rocket 4.0 01:47:00 10° NNE 01:50:40 40° E 01:51:20 37° SE
Meteor 2-21 4.2 01:50:58 71° W 01:51:03 71° WNW 01:57:07 10° N
Cosmos 2084 4.5 01:52:25 39° NE 01:52:25 39° NE 01:55:49 10° E
Cosmos 1190 Rocket 4.3 01:54:11 54° S 01:54:11 54° S 01:58:14 10° SSE
Cosmos 676 Rocket 4.0 01:54:26 61° NNW 01:55:22 81° ENE 02:00:35 10° SSE
CENTAUR R/B 3.2 01:52:52 38° NW 01:56:33 83° NE 02:05:49 10° SE
Cosmos 2297 4.1 01:54:05 33° NNW 01:56:33 61° NE 02:02:08 10° SE
Cosmos 2237 Rocket 2.3 01:55:42 45° SSW 01:57:28 75° ESE 02:03:08 10° NE
ARGOS 3.0 01:52:07 10° NNE 01:57:36 86° WNW 01:58:54 54° SSW
ADEOS II 3.7 01:57:45 10° N 01:59:50 21° NNW 01:59:50 21° NNW
Cosmos 2369 Rocket 2.5 01:59:43 33° NNW 02:02:19 67° NE 02:07:59 10° SE
USA 238 DEB 4.4 02:03:31 35° NW 02:05:37 44° N 02:12:41 10° ENE
USA 238 4.4 02:03:37 35° NW 02:05:44 44° N 02:12:48 10° ENE
Cosmos 1954 Rocket 3.8 02:07:31 68° WSW 02:07:31 68° WSW 02:12:31 10° SSE
ADEOS Rocket 3.5 02:01:16 10° N 02:07:40 51° WNW 02:08:51 46° W
Cosmos 2360 Rocket 3.5 02:10:54 24° NNW 02:10:54 24° NNW 02:15:11 10° NNE
Meteor 2-16 Rocket 4.3 02:05:47 12° SSW 02:11:36 79° WNW 02:17:47 10° N
SJ 16-02 2.0 02:15:02 41° S 02:15:02 41° S 02:17:57 10° SSE
Cosmos 2322 Rocket 3.6 02:15:59 22° NNW 02:16:00 22° NNW 02:20:26 10° NNE
IRS-1D 4.4 02:11:30 10° NNE 02:16:17 46° E 02:21:01 10° S
Cosmos 2333 Rocket 3.7 02:17:29 22° NNW 02:17:47 22° NNW 02:22:11 10° NNE
SKYMED 2 3.7 02:13:37 10° SSE 02:17:57 75° ENE 02:21:03 19° N
CZ-2D R/B 4.0 02:16:28 10° N 02:18:02 16° NNW 02:18:02 16° NNW
USA 234 3.5 02:14:10 10° SE 02:20:32 51° SW 02:22:27 40° W
NOSS 2-2 (E) 3.9 02:23:27 40° N 02:23:55 43° NNE 02:28:00 10° ESE
ACS3 Solar Sail 2.3 02:18:55 10° N 02:24:02 37° NW 02:24:02 37° NW
SeaSat 1 4.2 02:21:16 10° NNE 02:24:16 18° NNW 02:24:16 18° NNW
COSMO-SKYMED 1 2.8 02:20:53 10° SSE 02:24:57 64° ENE 02:28:38 13° N
USA 59 Rocket 1.1 02:28:26 22° NNE 02:28:26 22° NNE 02:29:51 10° NE
SL-16 R/B 3.9 02:26:41 18° NNW 02:27:32 18° NNW 02:31:25 10° NNE
Cosmos 968 Rocket 3.5 02:25:09 22° NNW 02:28:38 79° ENE 02:33:53 10° SSE
COSMOS 2455 3.9 02:29:14 26° NW 02:30:44 29° NNW 02:35:57 10° NE
Cosmos 1741 Rocket 4.3 02:26:44 17° NNW 02:30:54 66° ENE 02:36:11 10° SE
Resurs 1-4 Rocket 4.0 02:28:54 10° N 02:30:19 14° NNW 02:30:19 14° NNW
Cosmos 371 Rocket 3.4 02:32:57 49° W 02:33:23 51° WSW 02:38:04 10° S
Cosmos 2061 Rocket 4.0 02:29:26 10° NNW 02:35:29 57° W 02:41:30 10° S
Cosmos 1891 Rocket 4.5 02:29:35 10° NNW 02:36:02 88° E 02:42:17 10° S
CZ-4 R/B 4.3 02:33:28 10° NNE 02:38:20 63° ESE 02:43:03 10° S
Aureole 3 Rocket 3.6 02:35:09 10° NNW 02:39:53 81° W 02:46:34 10° S
Cosmos 2292 Rocket 4.3 02:35:23 14° SSW 02:40:00 59° WNW 02:46:39 10° N
Cosmos 1656 Rocket 3.9 02:38:46 36° WNW 02:40:27 47° WSW 02:45:51 10° S
Gbstr 26 Del rocket 3.8 02:39:59 37° WSW 02:41:55 62° S 02:47:56 10° ESE
Cosmos 304 Rocket 4.0 02:41:42 42° W 02:41:57 42° WSW 02:46:26 10° S
Meteor 1-24 Rocket 4.0 02:41:06 36° W 02:42:23 42° WNW 02:47:33 10° N
Cosmos 2219 Rocket 3.5 02:44:42 22° NW 02:45:34 23° NNW 02:50:05 10° NNE
Cosmos 2233 Rocket 4.2 02:40:24 10° NNW 02:46:21 45° W 02:52:14 10° SSW
Cosmos 1400 Rocket 2.6 02:44:17 18° NNW 02:46:56 81° ENE 02:50:36 10° SSE
Lacrosse 4 Rocket 2.3 02:46:35 22° NNW 02:48:46 41° NE 02:52:31 10° ESE
Cosmos 2151 Rocket 3.7 02:44:52 10° N 02:49:24 78° ENE 02:53:52 10° SSE
Lacrosse 5 rocket 0.7 02:49:50 62° WSW 02:50:14 72° SSW 02:53:33 10° ESE
In-Cosmos 22 Rocket 4.4 02:45:24 10° S 02:51:13 79° E 02:57:01 10° NNE
USA 306 3.5 02:50:32 27° SSW 02:51:47 39° SSE 02:55:23 10° E
NOSS 3-1 (C) 3.7 02:50:25 32° WNW 02:52:37 48° NNW 02:59:02 10° NE
NOSS 2-2 (C) 3.2 02:53:25 42° WNW 02:54:38 76° SW 02:59:23 10° SE
Cosmos 1869 4.5 02:56:58 22° SW 02:56:58 22° SW 02:58:30 10° SSW
Sich 1 Rocket 4.1 02:51:54 10° N 02:56:26 63° ENE 03:00:55 10° SSE
Cosmos 1447 Rocket 4.4 02:50:10 10° SSW 02:56:26 78° WNW 03:02:50 10° N
H-2A R/B 3.5 02:54:54 10° N 02:57:08 17° NNW 02:57:08 17° NNW
Cosmos 1464 Rocket 4.0 02:52:08 10° N 02:58:20 84° ENE 03:04:29 10° SSE
H-2A R/B 3.8 02:55:40 10° N 02:58:58 35° NW 02:58:58 35° NW
SL-16 R/B 2.5 02:55:06 10° SSW 03:00:45 71° ESE 03:06:27 10° NE
PAYLOAD A 4.4 02:55:52 10° N 03:00:56 43° WNW 03:05:41 11° SW
SWARM C 4.4 02:58:24 10° S 03:01:43 90° ESE 03:05:04 10° N
SWARM A 4.3 02:58:31 10° S 03:01:50 78° E 03:05:10 10° N
Cosmos 1624 Rocket 3.9 02:56:52 10° SSW 03:02:03 82° WNW 03:07:16 10° NNE
Cosmos 1420 Rocket 4.1 02:57:42 15° SW 03:02:04 56° NW 03:07:19 10° NNE
Cosmos 332 Rocket 3.7 02:58:13 15° NNW 03:02:11 84° WSW 03:06:58 10° SSE
NOSS 3-2 (C) 4.1 02:59:05 19° NW 03:04:06 66° NNE 03:12:19 10° ESE
SL-08 RB Rocket 4.3 03:00:37 10° N 03:04:42 34° WNW 03:06:14 26° W
Cosmos 1378 Rocket 3.5 03:00:51 10° S 03:05:07 81° E 03:09:26 10° NNE
Helios 1A Rocket 2.8 03:01:55 10° S 03:05:07 39° W 03:05:20 38° W
Cosmos 2242 Rocket 3.5 03:02:24 10° SSW 03:06:47 68° WNW 03:11:14 10° N
Okean 1 Rocket 3.1 03:03:09 10° N 03:07:31 77° ENE 03:11:49 10° SSE
NOSS 0 Rocket 4.3 03:04:17 24° W 03:07:35 42° NW 03:13:28 10° NNE
Cosmos 2346 Rocket 4.4 03:03:04 10° SSW 03:09:06 63° WNW 03:15:10 10° N
Cosmos 2034 Rocket 4.3 03:03:20 10° N 03:09:42 73° ENE 03:16:04 10° SSE
Cosmos 1812 3.9 03:14:35 17° SW 03:14:35 17° SW 03:15:34 10° SSW
Meteor 2-1 Rocket 4.4 03:07:17 10° NNW 03:13:16 82° ENE 03:19:06 10° SSE
NOSS 2-1 (E) 4.0 03:16:18 23° NNW 03:16:43 24° NNW 03:19:19 10° NE
NOSS 2-2 (D) 3.2 03:14:49 26° NW 03:16:48 84° SW 03:21:28 10° SE
Cosmos 1850 Rocket 4.0 03:14:13 12° NW 03:18:50 59° WSW 03:23:54 10° S
CZ-2C R/B 3.4 03:14:36 10° N 03:18:51 28° WNW 03:21:33 18° WSW
PKM 4.2 03:19:13 20° WNW 03:22:49 61° SSW 03:25:42 10° SE
COSMOS 2428 3.8 03:21:07 20° WNW 03:23:37 27° NNW 03:28:24 10° NNE
USA 267 3.4 03:17:38 10° ENE 03:24:13 80° SSE 03:30:46 10° WSW
Cosmos 1939 Rocket 3.7 03:21:14 10° N 03:24:29 26° WNW 03:26:12 19° WSW
NOSS 3-2 (A) 4.0 03:19:10 16° NW 03:25:02 76° SW 03:33:34 10° SE
Cosmos 1980 Rocket 4.0 03:20:58 10° NNW 03:25:10 21° NNE 03:29:20 10° ENE
Cosmos 1980 4.3 03:22:38 17° W 03:26:25 37° NW 03:31:42 10° NNE
USA 229 DEB 4.0 03:20:41 10° SSW 03:26:38 64° SE 03:33:25 10° NE
USA 229 4.0 03:20:54 10° SSW 03:26:51 64° SE 03:33:38 10° NE
IGS 5A 4.1 03:24:04 10° NNE 03:28:03 57° E 03:32:00 10° S
Cosmos 1072 Rocket 4.5 03:24:10 10° NNW 03:30:09 59° W 03:36:11 10° S
Cosmos 2084 3.4 03:28:09 20° WNW 03:30:50 62° SW 03:34:48 10° SE
Cosmos 1331 Rocket 4.2 03:27:04 10° SSW 03:32:18 75° ESE 03:37:32 10° NNE
Meteor 1-11 4.3 03:29:07 10° SSW 03:34:59 89° E 03:40:52 10° NNE
ARGOS 4.3 03:33:09 10° N 03:37:11 22° NW 03:40:21 13° W
Cosmos 1356 Rocket 4.5 03:33:18 10° N 03:37:13 45° ENE 03:41:10 10° SE
Cosmos 2297 4.4 03:36:01 13° NW 03:40:27 33° WSW 03:45:25 10° S
CBERS-1 4.3 03:35:53 10° NNE 03:41:02 75° ESE 03:46:09 10° SSW
NOSS 3-1 (A) 3.7 03:37:27 15° W 03:41:46 48° NNW 03:48:14 10° NE
Cosmos 2237 Rocket 2.9 03:37:34 13° W 03:42:02 33° NW 03:47:09 10° NNE
SMAP 4.1 03:37:41 10° NNE 03:42:14 50° E 03:46:46 10° S
Cosmos 1441 Rocket 4.2 03:40:17 10° S 03:43:27 42° E 03:46:40 10° NNE
Okean 2 Rocket 3.4 03:40:44 10° NNW 03:44:53 43° W 03:49:00 10° SSW
Cosmos 2369 Rocket 3.0 03:41:31 12° NW 03:45:59 30° WSW 03:50:52 10° SSW
CENTAUR R/B 3.8 03:40:00 12° NW 03:47:04 43° WSW 03:55:38 10° S
ATLAS 3B R/B 3.2 03:40:32 10° SW 03:48:13 83° SE 03:56:10 10° NE
NOSS 2-1 (D) 4.4 03:49:19 13° NW 03:50:55 19° N 03:53:14 10° NE
Cosmos 2056 Rocket 4.0 03:45:56 10° WSW 03:51:02 41° NW 03:56:09 10° NNE
Cosmos 1943 3.7 03:46:11 10° SSW 03:51:44 67° ESE 03:57:19 10° NE
NOSS 2-1 (C) 4.4 03:52:10 13° NW 03:53:53 19° N 03:56:11 10° NE
IRS-1D 4.0 03:50:52 10° N 03:55:20 35° WNW 03:59:46 10° SW
Orbus 7S? 2.7 03:51:35 10° WSW 03:55:32 83° NNW 03:58:11 10° ENE
Cosmos 2360 Rocket 4.0 03:53:11 10° NW 03:56:40 16° N 04:00:10 10° NE
USA 238 DEB 4.3 03:50:56 10° NW 03:57:46 60° NNE 04:05:26 10° ESE
USA 238 4.3 03:51:02 10° NW 03:57:52 59° NNE 04:05:32 10° ESE
Cosmos 1315 Rocket 3.0 03:54:24 10° N 03:58:15 71° ENE 04:02:06 10° SSE
COSMO-SKYMED 1 3.9 03:57:45 10° SW 04:00:42 19° W 04:03:40 10° NW
Iridium 45 4.2 03:57:50 10° NNW 04:00:59 59° W 04:04:07 10° S
Cosmos 2228 3.3 03:57:09 10° N 04:01:25 69° ENE 04:05:38 10° SSE
Cosmos 292 Rocket 4.0 03:57:26 10° NW 04:02:07 53° WSW 04:06:45 10° S
Cosmos 2322 Rocket 4.1 03:58:38 10° NW 04:02:12 16° N 04:05:46 10° NE
NOSS 2-3 (C) 4.4 03:58:39 10° NW 04:03:05 58° NNE 04:09:07 10° ESE
Cosmos 2333 Rocket 4.1 04:00:29 10° NW 04:04:17 18° N 04:08:05 10° NE
ACS3 Solar Sail 3.5 04:04:08 10° NNW 04:05:44 11° NW 04:07:21 10° NW
Cosmos 1025 Rocket 3.3 04:06:01 10° SSW 04:10:14 48° WNW 04:14:29 10° N
NOSS 2-3 (E) 4.3 04:06:03 10° NW 04:10:39 68° NE 04:16:48 10° ESE
Cosmos 1461 3.9 04:07:38 10° NW 04:11:18 33° NNE 04:14:54 10° E
NOSS 2-2 (E) 4.1 04:09:53 10° WNW 04:13:22 41° SW 04:17:58 10° SSE
SL-16 R/B 4.0 04:10:05 10° NNW 04:13:53 18° NNE 04:17:42 10° NE
MOS 1 Rocket 4.4 04:09:17 10° NNE 04:14:05 54° E 04:19:06 10° S
Cosmos 1674 Rocket 4.2 04:11:08 10° SW 04:15:11 34° WNW 04:19:15 10° N
USA 59 Rocket 1.0 04:14:29 10° NW 04:16:41 18° N 04:19:00 10° NE
COSMOS 2455 4.1 04:13:10 10° NW 04:18:24 29° NNE 04:23:36 10° ENE
Cosmos 1697 Rocket 3.6 04:13:51 10° NNW 04:19:16 45° NE 04:24:39 10° ESE
USA 306 2.7 04:16:42 10° WSW 04:20:13 73° S 04:24:15 10° E
Tsikada Rocket 4.1 04:16:23 10° SSW 04:22:44 81° WNW 04:29:13 10° N
Cosmos 1484 Rocket 3.4 04:19:58 10° N 04:23:04 28° WNW 04:26:09 10° SW
Cosmos 2221 Rocket 4.1 04:20:39 10° SW 04:24:56 41° WNW 04:29:15 10° N
Thor Agena Rocket 3.6 04:20:15 10° NNE 04:25:28 70° WNW 04:30:36 10° SSW
Cosmos 1110 Rocket 4.3 04:21:42 10° SW 04:26:50 48° NW 04:32:00 10° NNE
